Orbital Elements at Epoch 2459200.5 (2020-Dec-17.0) TDB
Reference: JPL 26 (heliocentric ecliptic J2000)
Element | Value | Uncertainty (1-sigma) | Units |
e | .05325450958029545 | 4.7717e-08 | |
a | 2.930420846666494 | 2.175e-08 | au |
q | 2.774362721613396 | 1.4042e-07 | au |
i | 9.50514818681695 | 4.9256e-06 | deg |
node | 51.8689271388655 | 3.217e-05 | deg |
peri | 86.27029014772422 | 6.1822e-05 | deg |
M | 64.93808531637913 | 5.0551e-05 | deg |
tp | 2458869.985590469017 (2020-Jan-21.48559047) | 0.00025752 | TDB |
period | 1832.286659692177 5.02 | 2.04e-05 5.585e-08 | d yr |
n | .1964758069354059 | 2.1875e-09 | deg/d |
Q | 3.086478971719592 | 2.2909e-08 | au |
|
| | Orbit Determination Parameters
Additional Information
|